Regional Weather Roundup
Issued by NWS Newport/Morehead, NC

Home | Current Version | Previous Version | Text Only | Print | Product List | Glossary On
Versions: 1 2 3 4 5 6 7 8 9 10 11 12 13 14 15 16 17 18 19 20 21 22 23 24 25 26 27 28 29 30 31 32 33 34 35 36 37 38 39 40 41 42 43 44 45 46 47 48 49 50
000
ASUS42 KMHX 180810
RWRMHX
WEATHER ROUNDUP FOR EASTERN NORTH CAROLINA
NATIONAL WEATHER SERVICE NEWPORT/MOREHEAD CITY NC
400 AM EDT THU SEP 18 2014

NOTE: "FAIR" INDICATES FEW OR NO CLOUDS BELOW 12,000 FEET
WITH NO SIGNIFICANT WEATHER AND/OR OBSTRUCTIONS TO VISIBILITY

NCZ015>017-031-032-045>047-102-103-180900-
NORTH COAST

CITY           SKY/WX    TMP DP  RH WIND       PRES   REMARKS
EDENTON        MOCLDY    63  62  96 CALM      29.93F
ELIZABETH CITY CLOUDY    67  61  81 N3        29.93S
KITTY HAWK     MOSUNNY   70  58  65 NE6       29.91S
MANTEO         PTCLDY    69  59  69 NE9       29.92S

$$

NCZ045>047-081-094-103-104-180900-
CENTRAL COAST

CITY           SKY/WX    TMP DP  RH WIND       PRES   REMARKS
FRISCO         CLEAR     69  62  78 NE7       29.90S
SWANQUARTER      N/A     64 N/A N/A NE2       29.88S

$$

NCZ095-097-098-100-101-180900-
SOUTHERN COAST

CITY           SKY/WX    TMP DP  RH WIND       PRES   REMARKS
BEAUFORT       PTCLDY    70  65  84 NE6       29.89F
CEDAR ISLAND     N/A     73 N/A N/A NE14G21   29.94S
JACKSONVILLE   PTCLDY    67  63  87 N3        29.90S
NEWPORT        NOT AVBL
PINEY ISLAND   MOSUNNY   76  63  64 NE14      29.89F
WILMINGTON     CLOUDY    67  65  93 N5        29.90R


$$

NCZ011>013-027>030-043-044-078>080-089-090>093-098-180900-
COASTAL PLAIN

CITY           SKY/WX    TMP DP  RH WIND       PRES   REMARKS
AHOSKIE        CLEAR     59  57  95 CALM      29.95S
CLINTON        MOCLDY    66  65  94 CALM      29.92F
ELIZABETHTOWN  MOCLDY    66  66  97 CALM      29.91F
GOLDSBORO      PTCLDY    64  63  98 CALM      29.91S
GREENVILLE     PTCLDY    63  61  94 CALM      29.95S
HAVELOCK       PTCLDY    69  65  86 NE6       29.91F
KENANSVILLE    PTCLDY    64  63  94 CALM      29.93S
KINSTON        PTCLDY    63  62  97 CALM      29.93F
NEW BERN       MOCLDY    68  63  84 NE5       29.92S
RICHLANDS      MOCLDY    64  61  88 N5        29.91S
ROANOKE RAPIDS NOT AVBL
ROCKY MOUNT    CLEAR     59  58  96 CALM      29.93F FOG
WASHINGTON     CLEAR     61  60  96 CALM      29.93S
WHITEVILLE     CLOUDY    68  65  92 N3        29.90S

$$

AMZ130-135-150-152-154-156-158-170-250-252-270-ANZ085-086-088-633-658-670-180900-
MARINE OBSERVATIONS

STATION/POSITION TIME  TEMP    WIND        PRES    WAVE   SWELL
                       AIR SEA DIR/SP/G            HT/PER HT/PER
                 (UTC) (F)     (DEG/KT/KT) (MB)    (FT/S) (FT/S)
CHESAPEAKE LIGHT 0700   70      60/  9/ 10 1014.3
BUOY 44014       0800   72 77   30/ 12/ 14 1012.6    5/14   5/14
DUCK             0800   71 76   40/ 11/ 13 1012.6
2E DUCK          0800                        N/A     4/13   3/13
OREGON INLET     0800   72 75   30/ 10/ 14 1012.8
BUOY 44095       0800      76                N/A     5/13   3/13
20E OREGON INLET NOT AVBL
HATTERAS CG      0800   72 77   40/  8/ 12 1012.8
DIAMOND BUOY     0800   73      20/ 12/ 16 1011.9    6/11   5/11
CAPE LOOKOUT     0700   75      40/ 14/ 17 1012.3
BEAUFORT LAB     0800   70 79   40/  5/  7 1011.6
30 SE NEW RIVER  0800   77 82   50/ 16/ 19 1011.6    4/14   3/14
5 SE WRIGHTSVILL 0700   72 81   50/ 16/ 17   N/A
BUOY 41002       0734   78 82  360/  8/ 10 1010.8    5/12   5/12
BUOY 41004       0800   80 83  350/  4/  6 1011.5    3/11   3/11

$$



USA.gov is the U.S. government's official web portal to all federal, state and local government web resources and services.